TimeCST,TemperatureF,Dew PointF,Humidity,Sea Level PressureIn,VisibilityMPH,Wind Direction,Wind SpeedMPH,Gust SpeedMPH,PrecipitationIn,Events,Conditions,WindDirDegrees,DateUTC
12:15 AM,11.5,5.2,76,30.34,10.0,SW,3.5,-,N/A,,Clear,230,2014-01-29 06:15:00
12:35 AM,11.7,4.5,73,30.33,10.0,Calm,Calm,-,N/A,,Clear,0,2014-01-29 06:35:00
12:55 AM,12.0,5.0,73,30.32,10.0,Calm,Calm,-,N/A,,Clear,0,2014-01-29 06:55:00
1:15 AM,11.1,5.0,76,30.32,10.0,Calm,Calm,-,N/A,,Clear,0,2014-01-29 07:15:00
1:35 AM,12.0,6.3,78,30.31,10.0,Calm,Calm,-,N/A,,Clear,0,2014-01-29 07:35:00
1:55 AM,13.1,6.8,76,30.31,10.0,Calm,Calm,-,N/A,,Clear,0,2014-01-29 07:55:00
2:15 AM,11.5,6.1,79,30.31,10.0,Calm,Calm,-,N/A,,Clear,0,2014-01-29 08:15:00
2:35 AM,11.8,7.3,82,30.32,10.0,WSW,3.5,-,N/A,,Clear,240,2014-01-29 08:35:00
2:55 AM,12.6,7.3,80,30.31,10.0,Calm,Calm,-,N/A,,Clear,0,2014-01-29 08:55:00
3:15 AM,11.5,5.9,78,30.31,10.0,Calm,Calm,-,N/A,,Clear,0,2014-01-29 09:15:00
3:35 AM,10.4,5.7,81,30.31,10.0,Calm,Calm,-,N/A,,Clear,0,2014-01-29 09:35:00
3:55 AM,10.4,6.4,84,30.30,10.0,Calm,Calm,-,N/A,,Clear,0,2014-01-29 09:55:00
4:15 AM,10.6,6.8,85,30.29,10.0,Calm,Calm,-,N/A,,Clear,0,2014-01-29 10:15:00
4:35 AM,10.4,6.6,85,30.29,10.0,SSW,3.5,-,N/A,,Clear,210,2014-01-29 10:35:00
4:55 AM,10.4,6.8,85,30.29,10.0,Calm,Calm,-,N/A,,Clear,0,2014-01-29 10:55:00
5:15 AM,10.4,7.0,86,30.29,10.0,SSW,3.5,-,N/A,,Clear,200,2014-01-29 11:15:00
5:35 AM,11.3,7.5,85,30.29,10.0,South,3.5,-,N/A,,Clear,170,2014-01-29 11:35:00
5:55 AM,10.8,7.0,85,30.29,10.0,South,3.5,-,N/A,,Clear,170,2014-01-29 11:55:00
6:15 AM,12.2,8.6,85,30.28,10.0,Calm,Calm,-,N/A,,Clear,0,2014-01-29 12:15:00
6:35 AM,12.9,9.5,86,30.28,10.0,South,4.6,-,N/A,,Clear,190,2014-01-29 12:35:00
6:55 AM,12.9,10.2,89,30.28,10.0,South,4.6,-,N/A,,Clear,180,2014-01-29 12:55:00
7:15 AM,13.1,10.8,90,30.28,10.0,SSW,5.8,-,N/A,,Clear,200,2014-01-29 13:15:00
7:35 AM,13.1,11.1,92,30.28,10.0,SSW,4.6,-,N/A,,Clear,200,2014-01-29 13:35:00
7:55 AM,14.4,12.6,93,30.28,10.0,SSW,5.8,-,N/A,,Clear,200,2014-01-29 13:55:00
8:15 AM,16.7,14.4,91,30.27,10.0,SSW,8.1,-,N/A,,Clear,200,2014-01-29 14:15:00
8:35 AM,19.2,14.7,83,30.27,10.0,SSW,8.1,-,N/A,,Clear,210,2014-01-29 14:35:00
8:55 AM,21.0,15.1,78,30.27,10.0,SSW,9.2,-,N/A,,Clear,210,2014-01-29 14:55:00
9:15 AM,23.2,15.4,72,30.27,10.0,SSW,9.2,-,N/A,,Clear,210,2014-01-29 15:15:00
9:35 AM,25.9,15.4,65,30.27,10.0,SSW,10.4,-,N/A,,Clear,210,2014-01-29 15:35:00
9:55 AM,28.0,15.6,60,30.29,10.0,SW,12.7,-,N/A,,Clear,230,2014-01-29 15:55:00
10:15 AM,29.3,15.3,56,30.29,10.0,SW,11.5,17.3,N/A,,Clear,220,2014-01-29 16:15:00
10:35 AM,30.7,14.5,51,30.29,10.0,SW,12.7,-,N/A,,Clear,220,2014-01-29 16:35:00
10:55 AM,31.5,14.0,49,30.28,10.0,SW,15.0,20.7,N/A,,Clear,220,2014-01-29 16:55:00
11:15 AM,34.0,15.6,47,30.28,10.0,SSW,13.8,19.6,N/A,,Clear,210,2014-01-29 17:15:00
11:35 AM,35.6,15.4,44,30.27,10.0,SSW,17.3,-,N/A,,Clear,210,2014-01-29 17:35:00
11:55 AM,35.6,14.0,41,30.26,10.0,SW,17.3,23.0,N/A,,Clear,230,2014-01-29 17:55:00
12:15 PM,36.9,13.8,39,30.24,10.0,SSW,17.3,21.9,N/A,,Clear,200,2014-01-29 18:15:00
12:35 PM,37.8,13.5,37,30.24,10.0,SW,19.6,24.2,N/A,,Clear,220,2014-01-29 18:35:00
12:55 PM,37.9,12.7,36,30.22,10.0,SW,16.1,25.3,N/A,,Clear,220,2014-01-29 18:55:00
1:15 PM,38.8,12.4,34,30.21,10.0,SSW,15.0,-,N/A,,Clear,210,2014-01-29 19:15:00
1:35 PM,40.5,12.9,33,30.19,10.0,SW,19.6,23.0,N/A,,Clear,220,2014-01-29 19:35:00
1:55 PM,40.5,11.8,31,30.18,10.0,SSW,19.6,23.0,N/A,,Clear,210,2014-01-29 19:55:00
2:15 PM,40.8,11.3,30,30.17,10.0,SSW,18.4,26.5,N/A,,Clear,210,2014-01-29 20:15:00
2:35 PM,41.4,11.3,29,30.16,10.0,SSW,20.7,27.6,N/A,,Clear,210,2014-01-29 20:35:00
2:55 PM,41.5,11.3,29,30.15,10.0,SSW,16.1,26.5,N/A,,Clear,210,2014-01-29 20:55:00
3:15 PM,41.7,11.5,29,30.14,10.0,SSW,19.6,28.8,N/A,,Clear,210,2014-01-29 21:15:00
3:35 PM,41.7,11.8,30,30.12,10.0,SSW,20.7,28.8,N/A,,Clear,210,2014-01-29 21:35:00
3:55 PM,41.5,12.2,30,30.12,10.0,SSW,19.6,26.5,N/A,,Clear,200,2014-01-29 21:55:00
4:15 PM,41.0,11.8,30,30.11,10.0,SSW,17.3,25.3,N/A,,Clear,210,2014-01-29 22:15:00
4:35 PM,40.6,11.7,31,30.10,10.0,SSW,20.7,27.6,N/A,,Clear,200,2014-01-29 22:35:00
4:55 PM,40.5,12.2,32,30.09,10.0,SSW,21.9,26.5,N/A,,Clear,200,2014-01-29 22:55:00
5:15 PM,39.2,12.2,33,30.09,10.0,SSW,15.0,28.8,N/A,,Clear,200,2014-01-29 23:15:00
5:35 PM,37.9,12.2,35,30.09,10.0,SSW,15.0,24.2,N/A,,Clear,200,2014-01-29 23:35:00
5:55 PM,37.6,12.7,36,30.08,10.0,SSW,12.7,23.0,N/A,,Clear,200,2014-01-29 23:55:00
6:15 PM,36.0,11.7,37,30.08,10.0,SSW,12.7,17.3,N/A,,Clear,200,2014-01-30 00:15:00
6:35 PM,35.6,11.7,37,30.08,10.0,SSW,15.0,18.4,N/A,,Clear,200,2014-01-30 00:35:00
6:55 PM,35.6,12.0,38,30.07,10.0,SSW,13.8,18.4,N/A,,Clear,200,2014-01-30 00:55:00
7:15 PM,35.6,12.4,38,30.07,10.0,South,12.7,-,N/A,,Clear,190,2014-01-30 01:15:00
7:35 PM,35.6,12.7,39,30.06,10.0,South,13.8,19.6,N/A,,Clear,190,2014-01-30 01:35:00
7:55 PM,35.6,12.9,39,30.05,10.0,South,12.7,19.6,N/A,,Clear,190,2014-01-30 01:55:00
8:15 PM,35.6,13.3,40,30.05,10.0,SSW,10.4,-,N/A,,Clear,200,2014-01-30 02:15:00
8:35 PM,34.2,12.7,41,30.04,10.0,South,11.5,-,N/A,,Clear,190,2014-01-30 02:35:00
8:55 PM,32.9,11.8,42,30.03,10.0,South,11.5,16.1,N/A,,Clear,190,2014-01-30 02:55:00
9:15 PM,32.9,11.8,42,30.02,10.0,SSW,13.8,-,N/A,,Clear,200,2014-01-30 03:15:00
9:35 PM,32.9,11.5,41,30.02,10.0,SSW,15.0,23.0,N/A,,Clear,200,2014-01-30 03:35:00
9:55 PM,32.9,11.3,41,30.02,10.0,SSW,16.1,20.7,N/A,,Clear,200,2014-01-30 03:55:00
10:15 PM,32.9,11.8,42,30.02,10.0,SSW,15.0,-,N/A,,Clear,200,2014-01-30 04:15:00
10:35 PM,32.9,12.0,42,30.02,10.0,SSW,16.1,19.6,N/A,,Clear,200,2014-01-30 04:35:00
10:55 PM,32.9,12.0,42,30.01,10.0,SSW,16.1,19.6,N/A,,Clear,200,2014-01-30 04:55:00
11:15 PM,32.5,12.2,43,30.00,10.0,SSW,17.3,21.9,N/A,,Clear,200,2014-01-30 05:15:00
11:35 PM,32.2,12.2,44,29.99,10.0,SSW,16.1,19.6,N/A,,Clear,200,2014-01-30 05:35:00
11:55 PM,32.4,12.7,44,29.99,10.0,SSW,16.1,23.0,N/A,,Clear,210,2014-01-30 05:55:00